Date String (YYYY-MM-DD hh:mm:ss) UTC,Instrument flags,Ambient pressure (hPa),Sample flow (lpm),Bypass flow (lpm),Sample temperature (°C),Ambient temperature (°C),ASC tube jacket temperature (°C),LED temperature (°C),Box temperature (°C),Sample RH (%),Span deviation,Mass concentration (μg/m³),Mass concentration (μg/m³),Mass concentration (μg/m³)
DateTimeUTC,F1_M11,P_M11,Q1_M11,Q2_M11,T1_M11,T2_M11,T3_M11,T4_M11,T5_M11,U1_M11,ZSPAN_M11,X2_M11,X0_M11,X1_M11
2022-09-18 19:00:00,,0826.6,5.02,0.00,29.9,28.5,00.0,38.5,31.7,25.7,0000.0,0006.54,0012.48,0005.91
2022-09-18 19:01:00,,0826.6,5.00,0.00,29.9,28.7,00.0,38.5,31.8,25.6,0000.0,0006.56,0012.50,0005.90
2022-09-18 19:02:00,,0826.6,5.00,0.00,29.9,28.8,00.0,38.5,31.9,25.1,0000.0,0006.55,0011.60,0005.89
2022-09-18 19:03:00,,0826.7,5.01,0.00,30.0,28.9,00.0,38.6,31.9,24.8,0000.0,0006.51,0011.52,0005.87
2022-09-18 19:04:00,,0826.7,4.99,0.00,30.0,29.0,00.0,38.6,32.0,25.0,0000.5,0006.49,0011.42,0005.88
2022-09-18 19:05:00,,0826.7,5.00,0.00,30.1,28.5,00.0,38.6,32.0,24.9,0000.8,0006.52,0011.45,0005.91
2022-09-18 19:06:00,,0826.6,5.00,0.00,30.0,27.2,00.0,38.6,31.9,24.8,0000.6,0006.58,0011.54,0005.95
2022-09-18 19:07:00,,0826.6,5.00,0.00,30.0,26.5,00.0,38.6,31.7,24.6,0000.6,0006.61,0011.40,0005.96
2022-09-18 19:08:00,,0826.6,5.00,0.00,29.9,26.6,00.0,38.5,31.7,25.0,0000.4,0006.61,0011.70,0005.97
2022-09-18 19:09:00,,0826.5,5.00,0.00,29.8,26.9,00.0,38.5,31.5,25.4,0000.2,0006.60,0012.27,0005.97
2022-09-18 19:10:00,,0826.5,5.00,0.00,29.8,27.3,00.0,38.5,31.5,25.5,0000.1,0006.59,0012.42,0005.98
2022-09-18 19:11:00,,0826.5,5.00,0.00,29.8,27.6,00.0,38.5,31.5,25.4,0000.3,0006.55,0012.29,0005.97
2022-09-18 19:12:00,,0826.5,5.00,0.00,29.8,27.9,00.0,38.5,31.6,25.4,0000.0,0006.50,0012.58,0005.97
2022-09-18 19:13:00,,0826.5,4.98,0.00,29.8,28.2,00.0,38.5,31.7,25.1,-000.3,0006.49,0012.88,0005.97
2022-09-18 19:14:00,,0826.5,5.02,0.00,29.8,28.4,00.0,38.5,31.7,25.5,-000.1,0006.54,0013.09,0005.98
2022-09-18 19:15:00,,0826.5,4.99,0.00,29.9,28.5,00.0,38.5,31.7,25.4,-000.0,0006.57,0013.29,0006.00
2022-09-18 19:16:00,,0826.5,4.99,0.00,29.9,28.6,00.0,38.5,31.7,25.5,0000.1,0006.58,0013.45,0006.00
2022-09-18 19:17:00,,0826.5,5.01,0.00,29.9,28.7,00.0,38.5,31.8,25.0,0000.4,0006.57,0014.08,0005.98
2022-09-18 19:18:00,,0826.5,4.99,0.00,30.0,28.9,00.0,38.6,31.9,25.1,0000.2,0006.58,0014.17,0005.99
2022-09-18 19:19:00,,0826.5,5.01,0.00,30.0,28.9,00.0,38.6,31.9,25.2,0000.0,0006.57,0013.80,0005.99
2022-09-18 19:20:00,,0826.5,4.99,0.00,30.0,27.9,00.0,38.6,31.9,24.7,0000.2,0006.55,0013.17,0005.97
2022-09-18 19:21:00,,0826.5,5.00,0.00,30.0,26.6,00.0,38.6,31.7,25.2,0000.0,0006.54,0012.83,0005.96
2022-09-18 19:22:00,,0826.5,5.01,0.00,29.9,26.5,00.0,38.5,31.7,25.3,-000.0,0006.57,0012.76,0005.98
2022-09-18 19:23:00,,0826.5,5.00,0.00,29.8,26.7,00.0,38.5,31.5,25.4,0000.0,0006.59,0012.15,0005.99
2022-09-18 19:24:00,,0826.4,4.99,0.00,29.8,27.1,00.0,38.4,31.4,25.1,0000.0,0006.60,0012.11,0005.99
2022-09-18 19:25:00,,0826.5,5.00,0.00,29.7,27.4,00.0,38.4,31.5,25.7,0000.0,0006.57,0011.93,0005.98
2022-09-18 19:26:00,,0826.4,5.00,0.00,29.7,27.7,00.0,38.4,31.5,25.5,0000.0,0006.57,0011.81,0005.97
2022-09-18 19:27:00,,0826.4,5.02,0.00,29.8,28.0,00.0,38.4,31.6,25.5,0000.0,0006.55,0011.92,0005.98
2022-09-18 19:28:00,,0826.4,4.99,0.00,29.8,28.2,00.0,38.4,31.6,25.1,0000.0,0006.55,0011.97,0005.98
2022-09-18 19:29:00,,0826.4,5.00,0.00,29.8,28.3,00.0,38.4,31.7,25.6,0000.0,0006.56,0012.53,0005.99
2022-09-18 19:30:00,,0826.4,4.99,0.00,29.8,28.5,00.0,38.4,31.7,25.9,0000.0,0006.56,0012.89,0005.99
2022-09-18 19:31:00,,0826.3,5.01,0.00,29.9,28.7,00.0,38.5,31.8,25.8,0000.0,0006.61,0013.76,0006.02
2022-09-18 19:32:00,,0826.3,4.99,0.00,29.9,28.8,00.0,38.5,31.8,26.1,0000.2,0006.62,0014.72,0006.04
2022-09-18 19:33:00,,0826.3,5.00,0.00,29.9,28.9,00.0,38.5,31.9,25.5,0000.3,0006.60,0015.14,0006.03
2022-09-18 19:34:00,,0826.2,5.01,0.00,30.0,28.3,00.0,38.5,31.9,25.8,0000.1,0006.61,0015.21,0006.04
2022-09-18 19:35:00,,0826.2,5.00,0.00,30.0,26.9,00.0,38.5,31.8,25.9,-000.2,0006.61,0015.03,0006.04
2022-09-18 19:36:00,,0826.2,5.01,0.00,29.9,26.4,00.0,38.5,31.7,25.8,-000.3,0006.62,0015.38,0006.05
2022-09-18 19:37:00,,0826.2,5.00,0.00,29.8,26.7,00.0,38.4,31.6,26.2,-000.1,0006.60,0015.57,0006.05
2022-09-18 19:38:00,,0826.2,4.99,0.00,29.8,27.0,00.0,38.4,31.4,26.2,-000.1,0006.60,0016.73,0006.02
2022-09-18 19:39:00,,0826.2,5.01,0.00,29.7,27.3,00.0,38.4,31.4,26.2,-000.4,0006.59,0016.41,0006.00
2022-09-18 19:40:00,,0826.2,5.00,0.00,29.7,27.6,00.0,38.4,31.5,26.4,-000.4,0006.55,0016.22,0005.99
2022-09-18 19:41:00,,0826.2,4.99,0.00,29.7,27.9,00.0,38.4,31.6,26.3,-000.5,0006.57,0015.85,0005.96
2022-09-18 19:42:00,,0826.2,5.01,0.00,29.8,28.1,00.0,38.4,31.6,25.4,-001.1,0006.53,0014.90,0005.93
2022-09-18 19:43:00,,0826.2,5.00,0.00,29.8,28.3,00.0,38.4,31.7,25.3,-000.6,0006.47,0013.87,0005.87
2022-09-18 19:44:00,,0826.2,5.01,0.00,29.8,28.5,00.0,38.4,31.7,24.8,-000.6,0006.40,0013.34,0005.81
2022-09-18 19:45:00,,0826.2,4.99,0.00,29.9,28.6,00.0,38.5,31.7,25.2,-000.5,0006.39,0012.84,0005.77
2022-09-18 19:46:00,,0826.2,5.01,0.00,29.9,28.7,00.0,38.5,31.8,25.3,0000.2,0006.36,0012.66,0005.74
2022-09-18 19:47:00,,0826.2,4.99,0.00,29.9,28.8,00.0,38.5,31.9,25.7,0000.3,0006.33,0012.49,0005.70
2022-09-18 19:48:00,,0826.1,4.99,0.00,30.0,28.7,00.0,38.5,31.9,25.7,0000.4,0006.36,0012.23,0005.68
2022-09-18 19:49:00,,0826.2,5.00,0.00,30.0,27.4,00.0,38.5,31.9,24.7,0000.3,0006.34,0011.27,0005.65
2022-09-18 19:50:00,,0826.2,5.01,0.00,29.9,26.6,00.0,38.5,31.7,24.4,-000.1,0006.33,0010.65,0005.61
2022-09-18 19:51:00,,0826.1,5.00,0.00,29.9,26.7,00.0,38.5,31.7,24.4,0000.2,0006.31,0010.16,0005.58
2022-09-18 19:52:00,,0826.0,5.00,0.00,29.8,26.9,00.0,38.4,31.5,24.5,0000.2,0006.27,0010.13,0005.55
2022-09-18 19:53:00,,0826.0,5.01,0.00,29.8,27.2,00.0,38.4,31.4,25.3,0000.8,0006.22,0010.58,0005.53
2022-09-18 19:54:00,,0826.0,5.00,0.00,29.7,27.5,00.0,38.4,31.5,25.8,0000.5,0006.24,0010.71,0005.53
2022-09-18 19:55:00,,0826.0,5.00,0.00,29.8,27.8,00.0,38.4,31.5,26.6,0000.3,0006.26,0011.54,0005.54
2022-09-18 19:56:00,,0826.0,4.98,0.00,29.8,28.1,00.0,38.4,31.6,26.9,0000.6,0006.28,0012.05,0005.55
2022-09-18 19:57:00,,0826.0,5.01,0.00,29.8,28.3,00.0,38.4,31.7,27.0,0000.6,0006.34,0013.18,0005.57
2022-09-18 19:58:00,,0826.0,4.99,0.00,29.8,28.4,00.0,38.4,31.7,27.3,0000.3,0006.36,0013.91,0005.59
2022-09-18 19:59:00,,0826.0,5.01,0.00,29.9,28.6,00.0,38.5,31.8,26.9,0000.1,0006.29,0013.72,0005.59
